Flag for Canada Weather past 2 weeks in Medicine Hat, Alberta, Canada

Now
55 °F

Sprinkles. Fog.


Feels Like: 53 °F
Forecast: 53 / 61 °F
Wind: 8 mph from Northeast

Location: Medicine Hat

Current Time: Aug 21, 2014 at 2:41:07 PM

Latest Report: Aug 21, 2014 at 2:00 PM


Visibility: 4 mi

Pressure: 30.15 "Hg

Humidity: 94%

Dew point: 54 °F

Location of Medicine HatLocation

Historic Weather in Medicine Hat — Graph

°F

Medicine Hat temperature yesterday

Maximum temperature yesterday: 75 °F (at 1:00 PM)
Minimum temperature yesterday: 55 °F (at 3:00 AM)
Average temperature yesterday: 62 °F

Past Weeks' High & Low Weather Summary

 TemperatureHumidityPressure
High95 °F (Aug 12, 4:00 PM)100% (Aug 18, 6:00 AM)30.19 "Hg (Aug 18, 6:00 AM)
Low52 °F (Aug 11, 5:00 AM)20% (Aug 12, 2:00 PM)29.56 "Hg (Aug 19, 8:00 PM)
Average71 °F62%29.92 "Hg
* Reported Aug 6 1:00 PM — Aug 21 1:00 PM, Medicine Hat, Weather by CustomWeather, © 2014

Note: Actual official high and low records may vary slightly from our data, if they occured in-between our weather recording intervals... More about our weather records

Advertising

Medicine Hat weather history for previous 24 hours

 ConditionsComfort  
Time TempWeatherWind HumidityBarometerVisibility
1:00 PM
Aug 21
55 °FSprinkles. Fog.10 mph94%30.13 "Hg5 mi
12:00 PM57 °FSprinkles. Fog.7 mph94%30.11 "Hg5 mi
11:00 AM55 °FSprinkles. Fog.8 mph94%30.11 "Hg6 mi
10:00 AM55 °FSprinkles. Mostly cloudy.9 mph94%30.09 "Hg15 mi
9:00 AM55 °FMostly cloudy.8 mph88%30.08 "Hg15 mi
8:46 AM55 °FMostly cloudy.9 mph88%30.07 "Hg15 mi
8:00 AM55 °FSprinkles. Cloudy.7 mph94%30.07 "Hg10 mi
7:00 AM55 °FSprinkles. Fog.8 mph94%30.05 "Hg6 mi
6:00 AM55 °FOvercast.7 mph94%30.03 "Hg9 mi
5:56 AM55 °FOvercast.8 mph94%30.03 "Hg9 mi
5:00 AM55 °FLight rain. Overcast.10 mph94%30.03 "Hg9 mi
4:00 AM55 °FLight rain. Mostly cloudy.12 mph94%30.00 "Hg9 mi
3:01 AM55 °FRain. Fog.9 mph94%29.99 "Hg5 mi
2:57 AM55 °FHeavy rain. Fog.9 mph94%29.98 "Hg5 mi
2:00 AM57 °FLight rain. Overcast.8 mph88%29.97 "Hg9 mi
1:00 AM59 °FLight rain. Mostly cloudy.10 mph82%29.96 "Hg9 mi
12:58 AM59 °FLight rain. Mostly cloudy.10 mph82%29.96 "Hg9 mi
12:00 AM59 °FLight rain. Mostly cloudy.10 mph88%29.95 "Hg9 mi
11:49 PM
Aug 20
59 °FLight rain. Overcast.10 mph88%29.95 "Hg9 mi
11:00 PM59 °FMostly cloudy.10 mph88%29.93 "Hg9 mi
10:00 PM61 °FMostly cloudy.7 mph88%29.93 "Hg9 mi
9:00 PM61 °FOvercast.2 mph94%29.91 "Hg15 mi
8:00 PM61 °FMostly cloudy.5 mph94%29.89 "Hg30 mi
7:00 PM61 °FMore clouds than sun.8 mph88%29.88 "Hg30 mi
6:00 PM63 °FThunderstorms. Mostly cloudy.8 mph88%29.87 "Hg10 mi
5:00 PM61 °FThunderstorms. Mostly cloudy.21 mph88%29.85 "Hg1 mi
4:48 PM70 °FThunderstorms. Broken clouds.6 mph64%29.83 "Hg15 mi
4:00 PM70 °FBroken clouds.9 mph60%29.80 "Hg30 mi
3:00 PM70 °FPartly sunny.18 mph64%29.80 "Hg30 mi
2:00 PM75 °FMostly cloudy.6 mph50%29.79 "Hg15 mi
Weather by CustomWeather, © 2014

See weather overviewHow to use our weather pages